Location: Unspecified
(0.0000°N, 0.0000°E)
Time: 22:43:08
(UTC+00:00)

Vanguard 1 - Pass Details

Date: 08 October 2020
Orbit: 649 x 3833 km, 34.3° (Epoch: 27 October)

Event Time Altitude Azimuth Distance (km) Brightness Sun altitude
Rises 11:30:10 0° 221° (SW) 7,058 14.5 82.5°
Reaches altitude 10° 11:35:21 10° 212° (SSW) 6,383 14.4 83.1°
Maximum altitude 11:55:11 37° 150° (SSE) 4,995 14.4 83.5°
Drops below altitude 10° 12:14:19 10° 89° (E) 6,279 14.2 80.9°
Sets 12:19:11 0° 81° (E) 6,952 14.3 80.0°
